Location: Christian Reformed Church
(43.0975°N, 93.8113°W)
Time: 18:50:51
(UTC+00:00)

Cosmos 2279 Rocket - Pass Details

Date: 13 December 2025
Orbit: 963 x 977 km, 82.9° (Epoch: 15 January)

Event Time Altitude Azimuth Distance (km) Brightness Sun altitude
Rises 23:01:41 0° 192° (SSW) 3,643 7.7 -4.2°
Reaches altitude 10° 23:04:11 10° 195° (SSW) 2,703 7.0 -4.6°
Maximum altitude 23:10:21 72° 279° (W) 1,023 4.4 -5.6°
Drops below altitude 10° 23:16:36 10° 4° (N) 2,730 6.1 -6.6°
Sets 23:19:09 0° 6° (N) 3,683 6.7 -7.0°
